Stations météo

Publicité
Paris-Montsouris, France (7156): Température de l'air & dewpoint: 14.09.2020 21:00:00 - 20.09.2020 21:00:00 (CEST)Paris-Montsouris, France (7156): Température de l'air 5cm: 14.09.2020 21:00:00 - 20.09.2020 21:00:00 (CEST)Paris-Montsouris, France (7156): Température de l'air -20cm & Température de l'air -100cm: 14.09.2020 21:00:00 - 20.09.2020 21:00:00 (CEST)Paris-Montsouris, France (7156): Vitesse du vent & gusts: 14.09.2020 21:00:00 - 20.09.2020 21:00:00 (CEST)Paris-Montsouris, France (7156): Direction du vent: 14.09.2020 21:00:00 - 20.09.2020 21:00:00 (CEST)Paris-Montsouris, France (7156): reduced air pressure: 14.09.2020 21:00:00 - 20.09.2020 21:00:00 (CEST)Paris-Montsouris, France (7156): visibility: 14.09.2020 21:00:00 - 20.09.2020 21:00:00 (CEST)Paris-Montsouris, France (7156): Ensoleillement: 14.09.2020 21:00:00 - 20.09.2020 21:00:00 (CEST)Paris-Montsouris, France (7156): Quantités de précipitations: 14.09.2020 21:00:00 - 20.09.2020 21:00:00 (CEST)
Date & Time tt [°C] td [°C] tt 5cm [°C] tt -20cm [°C] tt -100cm [°C] ff [km/h] ff [knt] fx [km/h] fx [knt] dd ppp [hPa] vv [km] sd [min] rr [mm]
20.09.2020 21:00:00 23,6 15,6 19,6 20,7 18,3 6 3 12 7 NNW 1014,6 20 0 0,0
20.09.2020 20:00:00 24,9 15,2 20,8 20,7 18,3 5 3 13 7 W 1014,2 20 27 0,0
20.09.2020 19:00:00 26,3 15,4 23,9 20,6 18,3 3 2 13 7 NE 1013,9 20 43 0,0
20.09.2020 18:00:00 27,7 15,0 26,4 20,5 18,3 5 3 16 9 NNW 1013,7 20 58 0,0
20.09.2020 17:00:00 26,5 15,2 26,6 20,2 18,3 7 4 18 10 NE 1014,1 20 31 0,0
20.09.2020 16:00:00 26,8 15,2 28,4 19,9 18,3 4 2 13 7 E 1014,4 20 40 0,0
20.09.2020 15:00:00 27,1 15,5 29,4 19,7 18,3 5 3 17 9 S 1014,6 20 38 0,0
20.09.2020 14:00:00 25,5 15,5 26,0 19,5 18,3 3 2 16 9 NE 1015,0 20 24 0,0
20.09.2020 13:00:00 25,2 15,2 26,8 19,2 18,3 4 2 11 6 SSE 1015,2 20 21 0,0
20.09.2020 12:00:00 24,7 15,9 26,7 19,1 18,3 6 3 16 9 ESE 1015,1 20 56 0,0
20.09.2020 11:00:00 23,3 16,3 20,9 19,1 18,3 4 2 17 9 S 1015,2 20 60 0,0
20.09.2020 10:00:00 19,7 15,1 18,0 19,1 18,2 6 4 13 7 SSE 1014,9 20 38 0,0
20.09.2020 09:00:00 17,8 15,6 16,0 19,2 18,3 4 2 9 5 SSW 1014,5 20 0 0,0
20.09.2020 08:00:00 17,5 15,8 15,3 19,3 18,3 5 3 13 7 S 1014,1 19 0 0,0
20.09.2020 07:00:00 17,2 15,5 14,9 19,4 18,3 4 2 11 6 SSE 1013,7 20 0 0,0
20.09.2020 06:00:00 17,7 15,7 15,5 19,6 18,3 5 3 16 9 SSE 1013,4 20 0 0,0
20.09.2020 05:00:00 18,2 17,0 15,6 19,7 18,3 5 3 14 8 SE 1013,4 11 0 0,0
20.09.2020 04:00:00 19,2 18,2 15,9 19,8 18,3 8 4 18 10 SE 1013,4 7 0 0,0
20.09.2020 03:00:00 18,9 17,7 16,0 19,9 18,3 5 3 10 5 N 1013,1 12 0 0,0
20.09.2020 02:00:00 18,8 17,3 16,3 20,0 18,3 4 2 9 5 N 1013,1 18 0 0,2
20.09.2020 01:00:00 19,4 17,7 17,5 20,1 18,3 7 4 15 8 W 1013,0 17 0 0,0
20.09.2020 00:00:00 19,8 18,5 17,2 20,2 18,3 8 4 29 16 SW 1013,4 12 0 0,0
19.09.2020 23:00:00 19,6 18,4 17,1 20,3 18,3 6 3 15 8 NNE 1013,0 15 0 0,0
19.09.2020 22:00:00 20,0 18,8 17,5 20,3 18,3 8 4 15 8 NNE 1012,8 10 0 0,0
19.09.2020 21:00:00 20,4 18,9 18,8 20,4 18,3 6 3 24 13 N 1012,7 10 0 2,2
19.09.2020 20:00:00 23,1 16,9 21,7 20,3 18,3 16 8 45 25 SSE 1013,0 18 0 0,0
19.09.2020 19:00:00 23,1 17,1 21,3 20,2 18,3 8 5 36 19 WNW 1012,1 20 0 0,0
19.09.2020 18:00:00 26,7 15,4 25,4 20,1 18,3 10 6 33 18 ENE 1011,5 20 0 0,0
19.09.2020 17:00:00 28,2 15,1 28,9 19,9 18,3 5 3 21 12 SSE 1011,2 19 10 0,0
19.09.2020 16:00:00 29,0 15,2 29,5 19,7 18,3 9 5 27 15 S 1011,8 20 22 0,0
19.09.2020 15:00:00 27,2 14,6 27,7 19,5 18,3 11 6 34 18 S 1012,4 20 3 0,0
19.09.2020 14:00:00 27,3 14,7 29,0 19,2 18,3 14 7 28 15 SSE 1012,8 20 41 0,0
19.09.2020 13:00:00 27,4 14,8 28,5 19,1 18,3 9 5 29 16 S 1013,1 20 58 0,0
19.09.2020 12:00:00 25,6 15,0 26,2 18,9 18,3 13 7 32 17 SSE 1013,6 20 20 0,0
19.09.2020 11:00:00 24,2 14,9 24,6 18,9 18,3 13 7 29 15 SE 1014,1 20 21 0,0
19.09.2020 10:00:00 22,6 15,9 21,7 18,9 18,3 8 4 26 14 SE 1013,7 20 0 0,0
19.09.2020 09:00:00 21,6 16,3 20,0 18,9 18,3 9 5 24 13 S 1013,7 20 0 0,0
19.09.2020 08:00:00 21,4 15,0 19,0 19,0 18,3 11 6 28 15 SSE 1013,7 20 0 0,0
19.09.2020 07:00:00 21,5 14,4 19,1 19,0 18,3 10 6 31 17 S 1013,3 20 0 0,0
19.09.2020 06:00:00 22,0 13,9 19,6 19,1 18,3 13 7 29 16 S 1012,8 20 0 0,0
19.09.2020 05:00:00 22,4 14,0 20,0 19,1 18,3 11 6 31 17 SE 1012,6 20 0 0,0
19.09.2020 04:00:00 22,0 14,1 18,9 19,2 18,3 7 4 18 10 SE 1012,7 20 0 0,0
19.09.2020 03:00:00 21,3 14,0 18,1 19,3 18,3 8 5 23 12 ESE 1012,9 20 0 0,0
19.09.2020 02:00:00 21,4 14,1 17,8 19,4 18,3 7 4 20 11 E 1013,2 20 0 0,0
19.09.2020 01:00:00 21,9 13,8 18,8 19,5 18,3 9 5 19 10 ENE 1013,6 20 0 0,0
19.09.2020 00:00:00 22,6 13,6 19,9 19,5 18,3 8 5 24 13 ENE 1013,9 20 0 0,0
18.09.2020 23:00:00 23,0 13,5 19,8 19,6 18,3 10 5 27 15 NE 1014,4 20 0 0,0
18.09.2020 22:00:00 23,2 13,4 19,7 19,7 18,3 10 6 24 13 NE 1014,7 20 0 0,0
18.09.2020 21:00:00 23,7 13,3 20,2 19,7 18,3 11 6 24 13 ENE 1014,9 20 0 0,0
18.09.2020 20:00:00 24,8 13,4 22,1 19,6 18,3 11 6 24 13 ENE 1014,8 20 31 0,0
18.09.2020 19:00:00 25,8 13,6 24,2 19,5 18,3 10 5 29 16 ENE 1014,7 20 54 0,0
18.09.2020 18:00:00 26,8 13,9 27,0 19,3 18,3 15 8 36 19 E 1015,0 20 58 0,0
18.09.2020 17:00:00 26,8 14,2 27,6 19,1 18,3 17 9 41 22 ENE 1015,0 20 55 0,0
18.09.2020 16:00:00 26,6 13,7 28,2 18,8 18,3 16 9 34 18 ENE 1015,6 20 32 0,0
18.09.2020 15:00:00 27,5 13,8 31,7 18,5 18,3 13 7 37 20 ENE 1016,3 19 60 0,0
18.09.2020 14:00:00 25,8 13,0 30,2 18,3 18,3 11 6 29 16 E 1017,0 20 60 0,0
18.09.2020 13:00:00 23,8 13,6 22,4 18,2 18,3 11 6 26 14 ENE 1017,4 20 60 0,0
18.09.2020 12:00:00 21,9 11,9 23,1 18,1 18,3 9 5 22 12 ENE 1018,2 20 60 0,0
18.09.2020 11:00:00 20,0 9,8 17,1 18,1 18,3 10 5 24 13 NE 1018,9 20 60 0,0
18.09.2020 10:00:00 16,5 8,5 14,8 18,2 18,3 8 5 22 12 ENE 1019,1 20 60 0,0
18.09.2020 09:00:00 15,0 7,8 12,7 18,3 18,3 11 6 22 12 ENE 1019,1 20 60 0,0
18.09.2020 08:00:00 14,4 7,0 11,3 18,5 18,3 10 5 24 13 NE 1018,9 20 5 0,0
18.09.2020 07:00:00 14,6 6,9 12,0 18,7 18,3 9 5 19 11 NE 1018,8 20 0 0,0
18.09.2020 06:00:00 15,2 7,2 12,3 18,8 18,3 10 6 21 12 NE 1019,1 20 0 0,0
18.09.2020 05:00:00 15,6 7,6 12,4 18,9 18,3 12 7 23 12 NE 1019,3 20 0 0,0
18.09.2020 04:00:00 16,1 8,1 12,8 19,1 18,3 9 5 23 13 NE 1019,6 20 0 0,0
18.09.2020 03:00:00 16,5 7,4 13,2 19,3 18,3 8 4 28 15 ENE 1019,9 20 0 0,0
18.09.2020 02:00:00 16,3 6,7 13,3 19,5 18,3 11 6 27 15 ENE 1020,3 20 0 0,0
18.09.2020 01:00:00 17,2 6,1 14,3 19,6 18,3 13 7 35 19 NE 1020,7 20 0 0,0
18.09.2020 00:00:00 17,8 6,0 15,1 19,8 18,3 13 7 37 20 NE 1020,9 20 0 0,0
17.09.2020 23:00:00 18,3 5,5 16,0 20,0 18,3 14 8 38 21 NNE 1021,2 20 0 0,0
17.09.2020 22:00:00 19,2 5,6 16,6 20,1 18,3 16 8 37 20 NE 1021,5 20 0 0,0
17.09.2020 21:00:00 20,6 5,4 18,0 20,3 18,3 18 10 41 22 NE 1021,3 20 0 0,0
17.09.2020 20:00:00 21,6 5,9 18,4 20,3 18,3 16 9 37 20 NE 1020,7 20 35 0,0
17.09.2020 19:00:00 23,4 6,6 21,3 20,3 18,3 15 8 35 19 NE 1020,6 20 60 0,0
17.09.2020 18:00:00 25,2 7,3 24,4 20,2 18,3 15 8 37 20 NE 1020,5 20 60 0,0
17.09.2020 17:00:00 25,1 7,7 24,7 20,0 18,3 16 8 37 20 NE 1021,0 20 60 0,0
17.09.2020 16:00:00 25,7 10,3 26,8 19,8 18,3 15 8 37 20 NE 1021,5 20 60 0,0
17.09.2020 15:00:00 25,7 11,1 30,4 19,5 18,3 15 8 37 20 NE 1022,1 20 60 0,0
17.09.2020 14:00:00 24,6 13,5 28,8 19,4 18,3 14 8 37 20 ENE 1022,7 20 60 0,0
17.09.2020 13:00:00 23,0 12,6 22,7 19,3 18,3 16 8 35 19 ENE 1023,3 20 60 0,0
17.09.2020 12:00:00 21,8 12,9 23,7 19,2 18,3 17 9 36 20 ENE 1023,8 20 60 0,0
17.09.2020 11:00:00 20,4 12,9 18,5 19,3 18,3 17 9 39 21 ENE 1024,1 20 60 0,0
17.09.2020 10:00:00 18,0 13,5 17,2 19,4 18,3 19 10 45 25 NE 1024,2 20 60 0,0
17.09.2020 09:00:00 17,3 14,2 16,4 19,5 18,3 21 12 45 24 NE 1023,9 15 51 0,0
17.09.2020 08:00:00 17,3 14,6 16,0 19,6 18,3 23 12 45 25 NE 1023,3 12 7 0,0
17.09.2020 07:00:00 17,6 14,7 15,9 19,7 18,3 16 8 41 22 NE 1023,0 16 0 0,0
17.09.2020 06:00:00 18,1 14,4 16,0 19,9 18,3 20 11 35 19 NNE 1022,5 12 0 0,0
17.09.2020 05:00:00 19,0 13,6 17,3 20,0 18,3 14 7 33 18 NE 1022,4 20 0 0,0
17.09.2020 04:00:00 19,4 13,8 17,3 20,1 18,3 14 8 35 19 NE 1022,4 20 0 0,0
17.09.2020 03:00:00 20,2 13,4 18,5 20,2 18,3 22 12 42 23 NE 1022,4 20 0 0,0
17.09.2020 02:00:00 21,2 13,1 19,4 20,3 18,3 17 9 42 23 NE 1022,1 20 0 0,0
17.09.2020 01:00:00 22,0 12,8 19,8 20,4 18,3 16 9 43 23 NNE 1021,9 20 0 0,0
17.09.2020 00:00:00 23,3 13,2 20,8 20,5 18,3 16 8 36 19 NNE 1021,7 20 0 0,0
16.09.2020 23:00:00 24,4 13,9 22,0 20,6 18,3 15 8 37 20 NNE 1021,0 20 0 0,0
16.09.2020 22:00:00 25,7 15,4 23,2 20,6 18,3 18 10 38 20 NE 1020,4 20 0 0,0
16.09.2020 21:00:00 26,7 15,7 23,9 20,7 18,3 14 7 34 18 NNE 1019,5 20 0 0,0
16.09.2020 20:00:00 27,9 15,9 25,6 20,6 18,3 16 9 36 19 NNE 1018,7 20 12 0,0
16.09.2020 19:00:00 29,6 14,6 27,9 20,5 18,3 16 8 29 16 N 1018,3 20 57 0,0
16.09.2020 18:00:00 30,9 14,5 29,1 20,4 18,3 6 4 16 9 NNE 1017,9 20 60 0,0
16.09.2020 17:00:00 30,0 14,5 29,3 20,1 18,2 4 2 18 10 NNW 1018,1 20 60 0,0
16.09.2020 16:00:00 29,9 15,6 30,9 19,8 18,3 9 5 20 11 N 1018,5 19 60 0,0
16.09.2020 15:00:00 29,0 15,9 35,0 19,5 18,3 8 4 19 10 N 1019,2 19 60 0,0
16.09.2020 14:00:00 27,4 17,0 32,7 19,3 18,3 8 4 22 12 NW 1019,6 20 60 0,0
16.09.2020 13:00:00 25,6 15,6 24,8 19,2 18,3 8 4 21 11 N 1020,0 20 60 0,0
16.09.2020 12:00:00 23,7 15,5 25,2 19,1 18,3 9 5 18 10 NNW 1020,3 19 60 0,0
16.09.2020 11:00:00 22,6 15,4 20,9 19,0 18,3 8 4 14 8 WNW 1020,2 17 60 0,0
16.09.2020 10:00:00 21,0 15,1 19,0 19,2 18,3 5 3 13 7 NNW 1019,7 16 60 0,0
16.09.2020 09:00:00 19,9 14,9 16,4 19,2 18,3 3 2 10 5 NW 1019,6 18 60 0,0
16.09.2020 08:00:00 19,0 14,7 15,5 19,4 18,3 4 2 13 7 NW 1019,3 19 6 0,0
16.09.2020 07:00:00 18,9 14,6 15,6 19,5 18,3 7 4 15 8 NNW 1019,1 20 0 0,0
16.09.2020 06:00:00 19,3 14,8 16,3 19,6 18,3 8 4 21 11 NNW 1018,9 20 0 0,0
16.09.2020 05:00:00 20,2 15,0 17,9 19,7 18,3 10 5 22 12 NNW 1019,1 20 0 0,0
16.09.2020 04:00:00 20,9 15,4 19,0 19,8 18,3 9 5 21 11 NNW 1019,0 20 0 0,0
16.09.2020 03:00:00 22,0 16,0 19,2 19,9 18,3 7 4 16 9 NW 1019,0 20 0 0,0
16.09.2020 02:00:00 23,3 16,3 20,5 20,0 18,3 10 5 19 11 NNW 1018,7 20 0 0,0
16.09.2020 01:00:00 24,3 15,5 21,0 20,1 18,3 8 4 18 10 NNW 1018,6 20 0 0,0
16.09.2020 00:00:00 25,1 13,0 19,5 20,3 18,3 8 4 16 9 NW 1018,5 20 0 0,0
15.09.2020 23:00:00 24,5 12,4 19,4 20,4 18,3 8 4 16 9 SW 1018,2 20 0 0,0
15.09.2020 22:00:00 26,0 11,7 19,9 20,4 18,3 9 5 12 7 SSW 1018,0 20 0 0,0
15.09.2020 21:00:00 27,3 12,1 21,0 20,4 18,3 4 2 7 4 S 1017,5 20 0 0,0
15.09.2020 20:00:00 28,8 11,8 22,5 20,4 18,3 4 2 16 8 SSE 1017,0 20 39 0,0
15.09.2020 19:00:00 31,2 12,1 26,3 20,3 18,3 7 4 21 11 SSE 1016,8 20 60 0,0
15.09.2020 18:00:00 32,8 12,9 30,4 20,1 18,3 8 5 19 10 SW 1016,9 20 60 0,0
15.09.2020 17:00:00 32,8 12,4 31,3 19,8 18,3 10 5 23 12 S 1017,0 20 60 0,0
15.09.2020 16:00:00 33,4 12,9 33,6 19,5 18,3 6 4 22 12 WSW 1017,4 20 44 0,0
15.09.2020 15:00:00 34,1 14,6 38,7 19,1 18,3 12 7 23 13 SSW 1017,9 20 58 0,0
15.09.2020 14:00:00 32,7 14,3 37,5 18,8 18,3 7 4 16 8 S 1018,3 20 60 0,0
15.09.2020 13:00:00 30,0 15,3 28,4 18,6 18,3 5 3 16 9 S 1018,7 20 60 0,0
15.09.2020 12:00:00 28,4 13,5 29,4 18,5 18,3 8 4 21 12 SSW 1019,2 20 60 0,0
15.09.2020 11:00:00 26,0 13,5 21,6 18,5 18,4 8 5 18 10 S 1019,4 20 60 0,0
15.09.2020 10:00:00 21,7 11,4 18,2 18,6 18,3 7 4 17 9 S 1019,3 20 55 0,0
15.09.2020 09:00:00 19,6 11,4 15,4 18,7 18,4 6 3 16 9 SSE 1019,1 20 51 0,0
15.09.2020 08:00:00 18,0 11,5 14,2 18,8 18,4 4 2 8 5 SSE 1018,5 20 9 0,0
15.09.2020 07:00:00 18,0 11,3 14,4 18,9 18,4 3 1 10 6 S 1018,4 20 0 0,0
15.09.2020 06:00:00 18,5 12,0 15,1 19,1 18,4 6 3 18 10 S 1018,3 20 0 0,0
15.09.2020 05:00:00 19,6 11,9 15,8 19,2 18,4 9 5 16 9 S 1018,4 20 0 0,0
15.09.2020 04:00:00 20,3 11,5 16,3 19,3 18,4 9 5 15 8 S 1018,4 20 0 0,0
15.09.2020 03:00:00 20,9 12,1 17,3 19,4 18,4 6 3 17 9 S 1018,6 20 0 0,0
15.09.2020 02:00:00 21,3 13,0 17,3 19,5 18,4 6 3 9 5 SSE 1018,6 20 0 0,0
15.09.2020 01:00:00 22,7 13,2 18,3 19,6 18,4 8 4 14 8 S 1018,9 20 0 0,0
15.09.2020 00:00:00 23,7 13,0 18,2 19,7 18,4 6 3 11 6 SE 1018,7 20 0 0,0
14.09.2020 23:00:00 24,2 12,8 19,0 19,8 18,4 3 2 8 4 ESE 1018,9 19 0 0,0
14.09.2020 22:00:00 25,8 11,9 19,8 19,9 18,4 3 1 8 4 E 1018,9 20 0 0,0
14.09.2020 21:00:00 26,9 11,4 20,7 19,9 18,4 5 3 8 4 NNE 1018,5 20 0 0,0

tt = Température de l'air
td = dewpoint
tt 5cm = Température de l'air 5cm
tt -20cm = Température de l'air -20cm
tt -100cm = Température de l'air -100cm
ff = Vitesse du vent
fx = gusts
dd = Direction du vent
ppp = reduced air pressure
vv = visibility
sd = Ensoleillement
rr = Quantités de précipitations

stations d'obs. à proximité